Weather History for KVLL - December, 2012

Change the Weather History Date:

Wednesday, December 5, 2012

  Actual Average (KDET) Record (KDET)
Temperature  
Mean Temperature 36 °F -  
Max Temperature 44 °F 39 °F 66 °F (2001)
Min Temperature 29 °F 28 °F 10 °F (1991)
Degree Days  
Heating Degree Days 28    
Moisture  
Dew Point 23 °F    
Average Humidity 59    
Maximum Humidity 74    
Minimum Humidity 45    
Precipitation  
Precipitation 0.00 in - - ()
Sea Level Pressure  
Sea Level Pressure 30.34 in    
Wind  
Wind Speed 8 mph (North)    
Max Wind Speed 15 mph    
Max Gust Speed 22 mph    
Visibility 10 miles    
Events      
Averages and records for this station are not official NWS values.
T = Trace of Precipitation, MM = Missing Value Source: NWS Daily Summary

Daily Weather History Graph

Daily Weather History Graph

Search for Another Location

Airport or City:

Trip Planner

Search our weather history database for the weather conditions in past years. The results will help you decide how hot, cold, wet, or windy it might be!

Date:

Astronomy

Dec. 05, 2012 Rise Set
Actual Time 7:47 AM EST 4:59 PM EST
Civil Twilight 7:15 AM EST 5:31 PM EST
Nautical Twilight 6:40 AM EST 6:06 PM EST
Astronomical Twilight 6:06 AM EST 6:40 PM EST
Moon 11:54 PM EST (12/5) 12:04 PM EST (12/5)
Length of Visible Light 10h 15m
Length of Day
9h 12m
Waning Gibbous, 60% of the Moon is Illuminated
Dec 5
Waning Gibbous
Dec 6
Last Quarter
Dec 13
New
Dec 20
First Quarter
Dec 28
Full

Hourly Weather History & Observations

Time (EST) Temp. Windchill Dew Point Humidity Pressure Visibility Wind Dir Wind Speed Gust Speed Precip Events Conditions
12:15 AM 44.4 °F 39.0 °F 32.0 °F 62% 30.13 in 10.0 mi WNW 10.4 mph 17.3 mph N/A   Clear
12:34 AM 43.7 °F 39.7 °F 31.8 °F 63% 30.15 in 10.0 mi NW 6.9 mph - N/A   Clear
12:55 AM 43.2 °F 37.9 °F 31.3 °F 63% 30.15 in 10.0 mi NW 9.2 mph - N/A   Clear
1:14 AM 42.6 °F 37.8 °F 31.6 °F 65% 30.16 in 10.0 mi WNW 8.1 mph - N/A   Clear
1:35 AM 41.9 °F 37.5 °F 30.9 °F 65% 30.17 in 10.0 mi WNW 6.9 mph - N/A   Clear
1:55 AM 41.4 °F 36.2 °F 30.0 °F 64% 30.18 in 10.0 mi WNW 8.1 mph - N/A   Clear
2:14 AM 41.0 °F 34.7 °F 30.0 °F 65% 30.19 in 10.0 mi WNW 10.4 mph - N/A   Clear
2:55 AM 40.1 °F 33.2 °F 30.2 °F 68% 30.20 in 10.0 mi WNW 11.5 mph - N/A   Clear
3:14 AM 39.4 °F 33.8 °F 30.0 °F 69% 30.20 in 10.0 mi NW 8.1 mph - N/A   Clear
3:35 AM 38.7 °F 34.3 °F 30.2 °F 72% 30.22 in 10.0 mi NW 5.8 mph - N/A   Clear
3:54 AM 38.5 °F 35.0 °F 30.2 °F 72% 30.23 in 10.0 mi WNW 4.6 mph - N/A   Clear
4:15 AM 38.3 °F 31.9 °F 28.4 °F 68% 30.23 in 10.0 mi NNW 9.2 mph 16.1 mph N/A   Mostly Cloudy
4:34 AM 37.4 °F 31.4 °F 26.1 °F 64% 30.25 in 10.0 mi NNW 8.1 mph - N/A   Overcast
4:55 AM 36.3 °F 30.1 °F 25.2 °F 64% 30.27 in 10.0 mi NNW 8.1 mph - N/A   Scattered Clouds
5:14 AM 35.6 °F 29.2 °F 24.8 °F 65% 30.28 in 10.0 mi NW 8.1 mph - N/A   Scattered Clouds
5:35 AM 34.9 °F 27.1 °F 23.4 °F 63% 30.29 in 10.0 mi NNW 10.4 mph 17.3 mph N/A   Scattered Clouds
5:55 AM 34.0 °F 27.2 °F 21.9 °F 61% 30.30 in 10.0 mi NW 8.1 mph 18.4 mph N/A   Clear
6:14 AM 33.4 °F 25.9 °F 21.6 °F 62% 30.30 in 10.0 mi NW 9.2 mph - N/A   Clear
6:35 AM 32.9 °F 25.9 °F 20.3 °F 60% 30.31 in 10.0 mi NNW 8.1 mph 17.3 mph N/A   Clear
6:54 AM 32.7 °F 25.7 °F 20.3 °F 60% 30.32 in 10.0 mi NW 8.1 mph 17.3 mph N/A   Clear
7:15 AM 32.2 °F 24.4 °F 20.5 °F 62% 30.34 in 10.0 mi NW 9.2 mph 16.1 mph N/A   Clear
7:35 AM 32.0 °F 23.6 °F 20.5 °F 63% 30.35 in 10.0 mi NW 10.4 mph 17.3 mph N/A   Clear
7:54 AM 32.0 °F 25.6 °F 20.1 °F 62% 30.35 in 10.0 mi NW 6.9 mph 18.4 mph N/A   Clear
9:34 AM 34.3 °F 25.0 °F 20.1 °F 56% 30.37 in 10.0 mi NW 13.8 mph 19.6 mph N/A   Clear
9:55 AM 35.1 °F 26.4 °F 20.1 °F 55% 30.38 in 10.0 mi WNW 12.7 mph 19.6 mph N/A   Clear
10:14 AM 35.6 °F 26.2 °F 20.1 °F 53% 30.39 in 10.0 mi NNW 15.0 mph 20.7 mph N/A   Clear
10:35 AM 36.7 °F 29.4 °F 20.5 °F 52% 30.39 in 10.0 mi NW 10.4 mph 17.3 mph N/A   Clear
10:54 AM 37.6 °F 29.1 °F 19.6 °F 48% 30.39 in 10.0 mi NW 13.8 mph 21.9 mph N/A   Clear
11:15 AM 37.6 °F 29.6 °F 19.4 °F 48% 30.39 in 10.0 mi NNW 12.7 mph 21.9 mph N/A   Clear
11:35 AM 38.5 °F 30.3 °F 19.2 °F 46% 30.39 in 10.0 mi NNW 13.8 mph 17.3 mph N/A   Clear
11:54 AM 38.5 °F 31.6 °F 19.2 °F 46% 30.39 in 10.0 mi NNW 10.4 mph 18.4 mph N/A   Clear
12:15 PM 38.8 °F 31.6 °F 19.4 °F 46% 30.39 in 10.0 mi NNW 11.5 mph 18.4 mph N/A   Clear
12:34 PM 38.8 °F 30.8 °F 19.4 °F 46% 30.39 in 10.0 mi NNW 13.8 mph 19.6 mph N/A   Clear
12:55 PM 39.9 °F 33.9 °F 20.3 °F 45% 30.38 in 10.0 mi North 9.2 mph 17.3 mph N/A   Clear
1:15 PM 39.4 °F 33.2 °F 20.1 °F 46% 30.38 in 10.0 mi North 9.2 mph - N/A   Clear
1:34 PM 39.2 °F 33.0 °F 20.5 °F 47% 30.38 in 10.0 mi North 9.2 mph - N/A   Clear
1:55 PM 39.2 °F 33.0 °F 20.8 °F 48% 30.38 in 10.0 mi North 9.2 mph - N/A   Clear
2:14 PM 39.4 °F 33.8 °F 20.7 °F 47% 30.38 in 10.0 mi North 8.1 mph 16.1 mph N/A   Clear
2:35 PM 39.4 °F 33.8 °F 21.6 °F 49% 30.38 in 10.0 mi North 8.1 mph - N/A   Clear
2:55 PM 39.9 °F 36.7 °F 21.9 °F 49% 30.39 in 10.0 mi North 4.6 mph - N/A   Clear
3:15 PM 39.6 °F 34.0 °F 21.4 °F 48% 30.39 in 10.0 mi North 8.1 mph - N/A   Scattered Clouds
3:35 PM 38.8 °F 36.5 °F 21.0 °F 49% 30.40 in 10.0 mi North 3.5 mph - N/A   Scattered Clouds
3:54 PM 38.5 °F 36.1 °F 21.6 °F 51% 30.40 in 10.0 mi NNE 3.5 mph - N/A   Clear
4:15 PM 37.6 °F 34.0 °F 21.2 °F 52% 30.40 in 10.0 mi ENE 4.6 mph - N/A   Clear
4:35 PM 37.6 °F 35.1 °F 21.2 °F 52% 30.41 in 10.0 mi NNE 3.5 mph - N/A   Clear
4:54 PM 37.2 °F 32.6 °F 21.2 °F 52% 30.41 in 10.0 mi NE 5.8 mph - N/A   Clear
5:15 PM 36.5 °F 31.8 °F 21.2 °F 54% 30.41 in 10.0 mi NE 5.8 mph - N/A   Clear
5:35 PM 36.1 °F 31.4 °F 21.2 °F 55% 30.40 in 10.0 mi ENE 5.8 mph - N/A   Clear
5:54 PM 35.8 °F 29.4 °F 21.9 °F 57% 30.40 in 10.0 mi ENE 8.1 mph - N/A   Clear
6:15 PM 34.9 °F 29.0 °F 22.5 °F 61% 30.40 in 10.0 mi ENE 6.9 mph - N/A   Clear
6:35 PM 34.3 °F 29.2 °F 22.5 °F 62% 30.41 in 10.0 mi ENE 5.8 mph - N/A   Clear
6:54 PM 34.2 °F 30.0 °F 22.6 °F 63% 30.40 in 10.0 mi ENE 4.6 mph - N/A   Clear
7:15 PM 34.0 °F 31.0 °F 22.5 °F 63% 30.41 in 10.0 mi ENE 3.5 mph - N/A   Clear
7:35 PM 33.8 °F 30.8 °F 22.1 °F 62% 30.42 in 10.0 mi ENE 3.5 mph - N/A   Clear
7:55 PM 33.3 °F - 22.1 °F 64% 30.41 in 10.0 mi Calm Calm - N/A   Clear
8:15 PM 33.3 °F 30.2 °F 21.9 °F 63% 30.41 in 10.0 mi ENE 3.5 mph - N/A   Clear
8:34 PM 32.9 °F 29.8 °F 21.9 °F 64% 30.41 in 10.0 mi East 3.5 mph - N/A   Clear
8:55 PM 32.5 °F 28.1 °F 21.9 °F 65% 30.40 in 10.0 mi East 4.6 mph - N/A   Clear
9:15 PM 32.0 °F 26.4 °F 21.7 °F 66% 30.40 in 10.0 mi ENE 5.8 mph - N/A   Clear
9:35 PM 32.0 °F 28.7 °F 21.9 °F 66% 30.40 in 10.0 mi ENE 3.5 mph - N/A   Clear
9:55 PM 32.0 °F - 22.1 °F 67% 30.40 in 10.0 mi Calm Calm - N/A   Clear
10:14 PM 31.1 °F - 22.1 °F 69% 30.40 in 10.0 mi Calm Calm - N/A   Clear
10:35 PM 30.4 °F - 22.1 °F 71% 30.40 in 10.0 mi Calm Calm - N/A   Clear
10:55 PM 29.8 °F - 21.9 °F 72% 30.41 in 10.0 mi Calm Calm - N/A   Clear
11:14 PM 30.0 °F - 22.6 °F 74% 30.39 in 10.0 mi Calm Calm - N/A   Clear
11:35 PM 30.0 °F - 22.5 °F 73% 30.40 in 10.0 mi Calm Calm - N/A   Clear
11:54 PM 30.2 °F - 22.5 °F 73% 30.40 in 10.0 mi Calm Calm - N/A   Scattered Clouds